Weather History for Gwinn, MI

Change the Weather History Date:

Thursday, February 7, 2013

  Actual Average (KESC) Record (KESC)
Temperature  
Mean Temperature 19 °F -  
Max Temperature 21 °F 25 °F 42 °F (1991)
Min Temperature 17 °F 5 °F -16 °F (1962)
Degree Days  
Heating Degree Days 46    
Moisture  
Dew Point 16 °F    
Average Humidity 88    
Maximum Humidity 93    
Minimum Humidity 73    
Precipitation  
Precipitation 0.00 in - - ()
Sea Level Pressure  
Sea Level Pressure 30.13 in    
Wind  
Wind Speed 6 mph (NE)    
Max Wind Speed 21 mph    
Max Gust Speed 28 mph    
Visibility 6 miles    
Events Snow    
Averages and records for this station are not official NWS values.
T = Trace of Precipitation, MM = Missing Value Source: NWS Daily Summary

Daily Weather History Graph

Daily Weather History Graph

Search for Another Location

Airport:

Trip Planner

Search our weather history database for the weather conditions in past years. The results will help you decide how hot, cold, wet, or windy it might be!

Date:

Astronomy

Feb. 07, 2013 Rise Set
Actual Time 8:04 AM EST 6:03 PM EST
Civil Twilight 7:32 AM EST 6:35 PM EST
Nautical Twilight 6:57 AM EST 7:10 PM EST
Astronomical Twilight 6:22 AM EST 7:45 PM EST
Moon 5:49 AM EST (2/7) 3:22 PM EST (2/7)
Length of Visible Light 11h 02m
Length of Day
9h 59m
Waning Crescent, 9% of the Moon is Illuminated
Feb 7
Waning Crescent
Feb 10
New
Feb 17
First Quarter
Feb 25
Full
Mar 4
Last Quarter

Hourly Weather History & Observations

Time (EST) Temp. Windchill Dew Point Humidity Pressure Visibility Wind Dir Wind Speed Gust Speed Precip Events Conditions
12:16 AM 18.1 °F - 15.6 °F 90% 30.13 in 5.0 mi Calm Calm - N/A Snow Light Snow
12:37 AM 18.0 °F 12.7 °F 15.8 °F 91% 30.12 in 4.0 mi East 3.5 mph - N/A Snow Light Snow
12:57 AM 18.0 °F 12.7 °F 15.8 °F 91% 30.13 in 5.0 mi ENE 3.5 mph - N/A Snow Light Snow
1:16 AM 17.6 °F 10.7 °F 15.6 °F 92% 30.12 in 5.0 mi ENE 4.6 mph - N/A Snow Light Snow
1:37 AM 17.6 °F 10.7 °F 15.8 °F 93% 30.13 in 4.0 mi East 4.6 mph - N/A Snow Light Snow
1:57 AM 17.6 °F - 15.8 °F 93% 30.14 in 4.0 mi Calm Calm - N/A Snow Light Snow
2:17 AM 17.6 °F 12.3 °F 15.8 °F 93% 30.13 in 3.0 mi East 3.5 mph - N/A Snow Light Snow
2:37 AM 17.6 °F 10.7 °F 15.8 °F 93% 30.13 in 4.0 mi East 4.6 mph - N/A Snow Light Snow
2:56 AM 17.6 °F - 15.6 °F 92% 30.14 in 4.0 mi Calm Calm - N/A Snow Light Snow
3:17 AM 17.6 °F 10.7 °F 15.4 °F 91% 30.13 in 3.0 mi East 4.6 mph - N/A Snow Light Snow
3:37 AM 17.6 °F 12.3 °F 15.4 °F 91% 30.12 in 3.0 mi East 3.5 mph - N/A Snow Light Snow
3:56 AM 17.6 °F - 15.3 °F 91% 30.12 in 4.0 mi Calm Calm - N/A Snow Light Snow
4:17 AM 17.6 °F 12.3 °F 15.3 °F 91% 30.11 in 5.0 mi NE 3.5 mph - N/A Snow Light Snow
4:37 AM 17.4 °F 12.1 °F 15.3 °F 91% 30.11 in 10.0 mi ENE 3.5 mph - N/A Snow Light Snow
4:56 AM 17.6 °F 12.3 °F 15.4 °F 91% 30.11 in 10.0 mi ENE 3.5 mph - N/A   Overcast
5:17 AM 17.6 °F 10.7 °F 15.4 °F 91% 30.11 in 7.0 mi ENE 4.6 mph - N/A Snow Light Snow
5:37 AM 17.6 °F 10.7 °F 15.4 °F 91% 30.10 in 10.0 mi ENE 4.6 mph - N/A   Overcast
5:57 AM 18.0 °F 12.7 °F 15.6 °F 91% 30.11 in 10.0 mi East 3.5 mph - N/A   Overcast
6:50 AM 17.6 °F 12.3 °F 15.8 °F 93% 30.11 in 10.0 mi NE 3.5 mph - N/A   Overcast
7:50 AM 17.6 °F 9.3 °F 15.8 °F 93% 30.11 in 10.0 mi NNE 5.8 mph - N/A   Overcast
8:50 AM 19.4 °F 10.4 °F 15.8 °F 86% 30.12 in 5.0 mi NE 6.9 mph - N/A   Overcast
9:50 AM 19.4 °F 11.5 °F 17.6 °F 93% 30.14 in 4.0 mi NE 5.8 mph - N/A   Overcast
10:50 AM 19.4 °F 9.5 °F 17.6 °F 93% 30.13 in 4.0 mi NE 8.1 mph - N/A   Overcast
11:50 AM 19.4 °F 8.6 °F 17.6 °F 93% 30.14 in 7.0 mi NE 9.2 mph - N/A   Overcast
1:50 PM 19.4 °F 6.0 °F 17.6 °F 93% 30.11 in 5.0 mi NNE 13.8 mph - N/A   Overcast
2:50 PM 19.4 °F 6.6 °F 17.6 °F 93% 30.11 in 7.0 mi NE 12.7 mph 18.4 mph N/A   Overcast
3:50 PM 19.4 °F 6.0 °F 17.6 °F 93% 30.10 in 5.0 mi NE 13.8 mph - N/A   Overcast
4:50 PM 21.2 °F 8.3 °F 17.6 °F 86% 30.11 in 10.0 mi NE 13.8 mph 20.7 mph N/A   Overcast
5:45 PM 21.2 °F 8.3 °F 17.6 °F 86% 30.11 in 4.0 mi NE 13.8 mph 19.6 mph N/A   Overcast
6:50 PM 21.2 °F 6.8 °F 17.6 °F 86% 30.14 in 5.0 mi NNE 17.3 mph 21.9 mph N/A Snow Light Snow
7:50 PM 21.2 °F 5.6 °F 17.6 °F 86% 30.14 in 4.0 mi NE 20.7 mph 24.2 mph N/A Snow Light Snow
8:50 PM 21.2 °F 6.8 °F 15.8 °F 80% 30.13 in 5.0 mi NE 17.3 mph 23.0 mph N/A Snow Light Snow
9:48 PM 21.2 °F 6.4 °F 15.8 °F 80% 30.14 in 5.0 mi NNE 18.4 mph 25.3 mph N/A Snow Light Snow
10:17 PM 21.7 °F 6.7 °F 15.3 °F 76% 30.14 in 7.0 mi NNE 19.6 mph 27.6 mph N/A   Overcast
10:37 PM 21.6 °F 7.3 °F 14.5 °F 74% 30.15 in 10.0 mi NNE 17.3 mph 20.7 mph N/A   Overcast
10:56 PM 21.2 °F 6.4 °F 14.0 °F 74% 30.15 in 10.0 mi NNE 18.4 mph 25.3 mph N/A   Overcast
11:17 PM 21.2 °F 6.4 °F 14.0 °F 74% 30.15 in 10.0 mi NNE 18.4 mph 25.3 mph N/A   Overcast
11:37 PM 20.8 °F 7.9 °F 13.8 °F 74% 30.15 in 10.0 mi NNE 13.8 mph - N/A   Overcast
11:56 PM 20.8 °F 6.8 °F 13.5 °F 73% 30.15 in 10.0 mi NNE 16.1 mph 20.7 mph N/A   Mostly Cloudy